Regional Weather Roundup
Issued by NWS

Home | Current Version | Previous Version | Text Only | Print | Product List | Glossary Off
Versions: 1 2 3 4 5 6 7 8 9 10 11 12 13 14 15 16 17 18 19 20 21 22 23 24 25 26 27 28 29 30 31 32 33 34 35 36 37 38 39 40 41 42 43 44 45 46 47 48 49 50

000
ASUS43 KOAX 200310
RWRNE

WEATHER ROUNDUP FOR NEBRASKA
NATIONAL WEATHER SERVICE OMAHA NE
1000 PM CDT SAT MAY 19 2018

NOTES: SATELLITE DATA IS BEING USED TO AUGMENT CLOUD COVER ABOVE
       12000 FEET.
       "FAIR" INDICATES FEW OR NO CLOUDS BELOW 12,000 FEET WITH NO
       SIGNIFICANT WEATHER AND/OR OBSTRUCTIONS TO VISIBILITY.


NEZ001>004-019>022-054>056-200400-
NEBRASKA PANHANDLE

CITY           SKY/WX    TMP DP  RH WIND       PRES   REMARKS
SCOTTSBLUFF    CLOUDY    44  41  89 N7        30.26R
ALLIANCE       CLOUDY    43  42  97 N12       30.23R
CHADRON        CLOUDY    46  43  89 SW6       30.24S
GORDON         CLOUDY    47  44  88 NW8       30.22R
KIMBALL        CLOUDY    41  40  98 N10       30.25R
SIDNEY         CLOUDY    42  41  96 N14       30.24R
$$

NEZ057>060-069>072-079>082-200400-
SOUTHWEST NEBRASKA

CITY           SKY/WX    TMP DP  RH WIND       PRES   REMARKS
NORTH PLATTE   LGT RAIN  48  45  89 N6        30.16R
IMPERIAL       CLOUDY    46  45  96 N16G25    30.19R
LEXINGTON      DRIZZLE   51  49  95 N6        30.11R
MCCOOK         CLOUDY    50  49  96 N12       30.12R
OGALLALA       DRIZZLE   47  45  91 N9        30.21R
$$

NEZ005>010-023>029-035>040-094-200400-
NORTH CENTRAL NEBRASKA

CITY           SKY/WX    TMP DP  RH WIND       PRES   REMARKS
VALENTINE      CLOUDY    55  38  52 N14       30.16R
AINSWORTH      LGT RAIN  50  47  87 N9        30.13R
BROKEN BOW     LGT RAIN  51  50  96 N8        30.10R
O`NEILL        CLOUDY    53  52  97 CALM      30.10R
ORD            CLOUDY    51  50  96 N9        30.07R
THEDFORD       RAIN      50  44  80 N9        30.17R
$$

NEZ041-046>049-061>064-073>077-083>087-200400-
SOUTH CENTRAL NEBRASKA

CITY           SKY/WX    TMP DP  RH WIND       PRES   REMARKS
GRAND ISLAND   CLOUDY    52  49  89 N9        30.06R
AURORA         CLOUDY    52  51  98 NE14      30.03F
HASTINGS       CLOUDY    52  50  93 N14       30.05R
HEBRON         CLOUDY    57  53  85 N10       30.04R
HOLDREGE       LGT RAIN  49  49 100 N9        30.08R
KEARNEY        LGT RAIN  50  48  93 N12       30.08R
YORK           CLOUDY    54  54 100 N6        30.05R
$$

NEZ011>018-030>034-042>045-200400-
NORTHEAST NEBRASKA

CITY           SKY/WX    TMP DP  RH WIND       PRES   REMARKS
NORFOLK        CLOUDY    52  52 100 N9        30.06R
ALBION         CLOUDY    53  51  94 N5        30.07R
BLAIR          CLOUDY    57  55  93 N7        30.01R
COLUMBUS       CLOUDY    54  52  94 N8        30.05R
FREMONT        CLOUDY    58  55  90 N5        30.02S
TEKAMAH        CLOUDY    58  56  93 N9        30.02R
WAYNE          DRIZZLE   54  53  96 N7        30.05R
$$

NEZ050>053-065>068-078-088>093-200400-
SOUTHEAST NEBRASKA

CITY           SKY/WX    TMP DP  RH WIND       PRES   REMARKS
LINCOLN        CLOUDY    56  53  90 N7        30.03R
OMAHA EPPLEY   CLOUDY    60  55  83 NW10      30.01R
BEATRICE       CLEAR     59  55  86 N7        30.02R
FALLS CITY     MOCLDY    67  57  70 N9        29.96R
NEBRASKA CITY  CLOUDY    60  59  96 N9        29.99S
PLATTSMOUTH    LGT RAIN  60  55  83 N8        30.00R
$$

NEZ044-045-051>053-067-200400-
OMAHA AREA

CITY           SKY/WX    TMP DP  RH WIND       PRES   REMARKS
OMAHA EPPLEY   CLOUDY    60  55  83 NW10      30.01R
BLAIR          CLOUDY    57  55  93 N7        30.01R
FREMONT        CLOUDY    58  55  90 N5        30.02S
MILLARD        LGT RAIN  60  56  84 N6        30.01R
OFFUTT AFB     CLOUDY    60  56  85 NW7       30.00R
PLATTSMOUTH    LGT RAIN  60  55  83 N8        30.00R
WAHOO          CLOUDY    58  54  86 N7        30.02R
$$




USA.gov is the U.S. government's official web portal to all federal, state and local government web resources and services.